User: anonymous   Login
Location: Glencliff
(36.1226°N, 86.7183°W)
Time: 15:50:00
(UTC+00:00)
Language:

Cosmos 1633 Rocket - Orbit

View from above orbital plane
View from above orbital plane
View from above satellite
View from above satellite

Ground track
Ground track

The orbit data is extracted from the following two-line orbital elements,

1 15593U 85020B   19291.81264969  .00000066  00000-0  49171-5 0  9994
2 15593  82.5404 183.8063 0013189  99.0341 261.2368 14.84367012870992
Epoch (UTC): 18 October 2019 19:30:12
Eccentricity: 0.0013189
inclination: 82.5404°
perigee height: 606 km
apogee height: 625 km
right ascension of ascending node: 183.8063°
argument of perigee: 99.0341°
revolutions per day: 14.84367012
mean anomaly at epoch: 261.2368°
orbit number at epoch: 87099

The dashed part of the orbit path shows where the satellite is in the earth's shadow,  

DLR